| time (UTC) | temp C | wind direction | speed KPH | gust KPH | rain 1hr cm | rain 24hr cm | rain mn cm | humidity % | barometer mb |
| 20260508234311 | 9 | 45 | 17.7 | 24.1 | 0.00 | 0.00 | 0.00 | 76 | 1015.9 |
| 20260508233311 | 9 | 45 | 16.1 | 27.4 | 0.00 | 0.00 | 0.00 | 75 | 1015.7 |
| 20260508232311 | 9 | 67 | 12.9 | 25.7 | 0.00 | 0.00 | 0.00 | 75 | 1015.7 |
| 20260508230311 | 9 | 67 | 14.5 | 20.9 | 0.00 | 0.00 | 0.00 | 74 | 1015.8 |
| 20260508223311 | 10 | 45 | 14.5 | 24.1 | 0.00 | 0.00 | 0.00 | 73 | 1016.1 |
| 20260508222310 | 10 | 67 | 14.5 | 25.7 | 0.00 | 0.00 | 0.00 | 73 | 1015.9 |
| 20260508220311 | 9 | 22 | 16.1 | 24.1 | 0.00 | 0.00 | 0.00 | 74 | 1015.6 |
| 20260508215310 | 9 | 22 | 11.3 | 20.9 | 0.00 | 0.00 | 0.00 | 74 | 1015.5 |
| 20260508213310 | 9 | 22 | 14.5 | 22.5 | 0.00 | 0.00 | 0.00 | 73 | 1015.5 |
| 20260508212310 | 10 | 22 | 16.1 | 24.1 | 0.00 | 0.00 | 0.00 | 72 | 1015.5 |
| 20260508211311 | 10 | 45 | 11.3 | 22.5 | 0.00 | 0.00 | 0.00 | 72 | 1015.7 |
| 20260508210310 | 10 | 22 | 12.9 | 22.5 | 0.00 | 0.00 | 0.00 | 72 | 1015.7 |
| 20260508203309 | 10 | 45 | 12.9 | 20.9 | 0.00 | 0.00 | 0.00 | 72 | 1015.5 |
| 20260508202314 | 10 | 45 | 11.3 | 20.9 | 0.00 | 0.00 | 0.00 | 71 | 1015.5 |
| 20260508201314 | 10 | 22 | 12.9 | 20.9 | 0.00 | 0.00 | 0.00 | 71 | 1015.4 |
| 20260508200317 | 10 | 45 | 11.3 | 19.3 | 0.00 | 0.00 | 0.00 | 74 | 1015.2 |
| 20260508193316 | 10 | 45 | 12.9 | 17.7 | 0.00 | 0.00 | 0.00 | 69 | 1014.8 |
| 20260508191313 | 11 | 22 | 12.9 | 17.7 | 0.00 | 0.00 | 0.00 | 69 | 1014.6 |
| 20260508190313 | 11 | 45 | 12.9 | 19.3 | 0.00 | 0.00 | 0.00 | 68 | 1014.2 |
| 20260508185313 | 11 | 22 | 12.9 | 17.7 | 0.00 | 0.00 | 0.00 | 68 | 1014.4 |
| 20260508184313 | 11 | 45 | 11.3 | 19.3 | 0.00 | 0.00 | 0.00 | 67 | 1014.2 |
| 20260508182312 | 12 | 22 | 8.0 | 12.9 | 0.00 | 0.00 | 0.00 | 65 | 1014.2 |
| 20260508180313 | 13 | 45 | 14.5 | 19.3 | 0.00 | 0.00 | 0.00 | 63 | 1013.9 |
| 20260508175312 | 13 | 45 | 4.8 | 14.5 | 0.00 | 0.00 | 0.00 | 63 | 1013.9 |
| 20260508174312 | 13 | 45 | 11.3 | 17.7 | 0.00 | 0.00 | 0.00 | 62 | 1013.9 |
| 20260508172311 | 14 | 45 | 12.9 | 17.7 | 0.00 | 0.00 | 0.00 | 60 | 1013.6 |
| 20260508170311 | 14 | 67 | 11.3 | 17.7 | 0.00 | 0.00 | 0.00 | 58 | 1013.3 |
| 20260508164312 | 15 | 45 | 12.9 | 20.9 | 0.00 | 0.00 | 0.00 | 57 | 1013.5 |
| 20260508163311 | 15 | 67 | 4.8 | 17.7 | 0.00 | 0.00 | 0.00 | 56 | 1013.3 |
| 20260508162311 | 15 | 360 | 9.7 | 17.7 | 0.00 | 0.00 | 0.00 | 56 | 1013.3 |
| 20260508160312 | 16 | 157 | 3.2 | 8.0 | 0.00 | 0.00 | 0.00 | 51 | 1013.2 |
| 20260508155310 | 16 | 180 | 1.6 | 8.0 | 0.00 | 0.00 | 0.00 | 47 | 1013.2 |
| 20260508153310 | 16 | 337 | 8.0 | 12.9 | 0.00 | 0.00 | 0.00 | 48 | 1013.4 |
| 20260508152310 | 16 | 180 | 3.2 | 8.0 | 0.00 | 0.00 | 0.00 | 48 | 1013.5 |
| 20260508150313 | 16 | 225 | 0.0 | 9.7 | 0.00 | 0.00 | 0.00 | 42 | 1013.6 |
| 20260508145312 | 16 | 202 | 1.6 | 9.7 | 0.00 | 0.00 | 0.00 | 47 | 1013.9 |
| 20260508144312 | 16 | 180 | 3.2 | 19.3 | 0.00 | 0.00 | 0.00 | 48 | 1013.9 |
| 20260508143312 | 17 | 202 | 8.0 | 14.5 | 0.00 | 0.00 | 0.00 | 45 | 1014.2 |
| 20260508140312 | 17 | 202 | 3.2 | 14.5 | 0.00 | 0.00 | 0.00 | 48 | 1014.3 |
| 20260508135312 | 16 | 157 | 3.2 | 17.7 | 0.00 | 0.00 | 0.00 | 46 | 1014.1 |
| 20260508134311 | 17 | 270 | 1.6 | 17.7 | 0.00 | 0.00 | 0.00 | 50 | 1014.7 |
| 20260508133311 | 16 | 292 | 9.7 | 19.3 | 0.00 | 0.00 | 0.00 | 53 | 1014.5 |
| 20260508132311 | 16 | 360 | 1.6 | 16.1 | 0.00 | 0.00 | 0.00 | 52 | 1014.7 |
| 20260508131311 | 15 | 202 | 8.0 | 19.3 | 0.00 | 0.00 | 0.00 | 54 | 1014.6 |
| 20260508130311 | 16 | 180 | 8.0 | 12.9 | 0.00 | 0.00 | 0.00 | 48 | 1014.6 |
| 20260508125311 | 16 | 202 | 9.7 | 14.5 | 0.00 | 0.00 | 0.00 | 51 | 1014.6 |
| 20260508124311 | 16 | 67 | 1.6 | 16.1 | 0.00 | 0.00 | 0.00 | 55 | 1014.3 |
| 20260508123312 | 16 | 202 | 14.5 | 19.3 | 0.00 | 0.00 | 0.00 | 52 | 1014.8 |
| 20260508122310 | 16 | 180 | 1.6 | 16.1 | 0.00 | 0.00 | 0.00 | 50 | 1014.8 |
| 20260508120310 | 16 | 292 | 3.2 | 14.5 | 0.00 | 0.00 | 0.00 | 51 | 1014.9 |
| 20260508114310 | 16 | 292 | 1.6 | 12.9 | 0.00 | 0.00 | 0.00 | 56 | 1014.7 |
| 20260508112309 | 15 | 292 | 0.0 | 11.3 | 0.00 | 0.00 | 0.00 | 49 | 1014.7 |
| 20260508111309 | 15 | 180 | 4.8 | 17.7 | 0.00 | 0.00 | 0.00 | 51 | 1014.6 |
| 20260508110309 | 15 | 202 | 1.6 | 12.9 | 0.00 | 0.00 | 0.00 | 52 | 1014.8 |
| 20260508105309 | 15 | 270 | 4.8 | 16.1 | 0.00 | 0.00 | 0.00 | 51 | 1014.6 |
| 20260508104309 | 14 | 202 | 4.8 | 12.9 | 0.00 | 0.00 | 0.00 | 51 | 1014.6 |
| 20260508103309 | 16 | 292 | 3.2 | 14.5 | 0.00 | 0.00 | 0.00 | 52 | 1015.0 |
| 20260508101314 | 14 | 202 | 1.6 | 14.5 | 0.00 | 0.00 | 0.00 | 61 | 1014.6 |
| 20260508100313 | 14 | 270 | 3.2 | 12.9 | 0.00 | 0.00 | 0.00 | 56 | 1014.7 |
| 20260508095314 | 13 | 180 | 8.0 | 16.1 | 0.00 | 0.00 | 0.00 | 59 | 1014.5 |
| 20260508094314 | 13 | 180 | 3.2 | 12.9 | 0.00 | 0.00 | 0.00 | 60 | 1014.7 |
| 20260508092314 | 13 | 180 | 3.2 | 11.3 | 0.00 | 0.00 | 0.00 | 63 | 1014.7 |
| 20260508091314 | 13 | 202 | 8.0 | 14.5 | 0.00 | 0.00 | 0.00 | 62 | 1014.8 |
| 20260508090313 | 13 | 180 | 8.0 | 14.5 | 0.00 | 0.00 | 0.00 | 58 | 1015.1 |
| 20260508085313 | 13 | 180 | 4.8 | 14.5 | 0.00 | 0.00 | 0.00 | 66 | 1015.1 |
| 20260508083312 | 12 | 202 | 1.6 | 19.3 | 0.00 | 0.00 | 0.00 | 64 | 1015.0 |
| 20260508082312 | 12 | 180 | 4.8 | 12.9 | 0.00 | 0.00 | 0.00 | 67 | 1014.8 |
| 20260508081312 | 12 | 292 | 1.6 | 11.3 | 0.00 | 0.00 | 0.00 | 70 | 1014.8 |
| 20260508080312 | 12 | 180 | 3.2 | 11.3 | 0.00 | 0.00 | 0.00 | 68 | 1014.7 |
| 20260508073311 | 10 | 202 | 6.4 | 11.3 | 0.00 | 0.00 | 0.00 | 69 | 1014.4 |
| 20260508072312 | 10 | 180 | 4.8 | 11.3 | 0.00 | 0.00 | 0.00 | 72 | 1014.4 |
| 20260508071311 | 10 | 180 | 0.0 | 6.4 | 0.00 | 0.00 | 0.00 | 72 | 1014.4 |
| 20260508070311 | 9 | 0 | 0.0 | 6.4 | 0.00 | 0.00 | 0.00 | 73 | 1014.4 |
| 20260508065311 | 9 | 202 | 1.6 | 4.8 | 0.00 | 0.00 | 0.00 | 79 | 1014.4 |
| 20260508064311 | 8 | 202 | 4.8 | 9.7 | 0.00 | 0.00 | 0.00 | 82 | 1014.3 |
| 20260508063314 | 8 | 202 | 3.2 | 11.3 | 0.00 | 0.00 | 0.00 | 81 | 1014.0 |
| 20260508062311 | 8 | 202 | 4.8 | 8.0 | 0.00 | 0.00 | 0.00 | 78 | 1014.0 |
| 20260508061314 | 8 | 0 | 0.0 | 0.0 | 0.00 | 0.00 | 0.00 | 80 | 1013.9 |
| 20260508060310 | 8 | 0 | 0.0 | 0.0 | 0.00 | 0.00 | 0.00 | 82 | 1013.9 |
| 20260508055310 | 7 | 0 | 0.0 | 0.0 | 0.00 | 0.00 | 0.00 | 84 | 1013.9 |
| 20260508054310 | 7 | 0 | 0.0 | 0.0 | 0.00 | 0.00 | 0.00 | 89 | 1013.6 |
| 20260508053310 | 7 | 0 | 0.0 | 0.0 | 0.00 | 0.00 | 0.00 | 89 | 1013.8 |
| 20260508052310 | 6 | 0 | 0.0 | 0.0 | 0.00 | 0.00 | 0.00 | 94 | 1013.6 |
| 20260508051310 | 5 | 0 | 0.0 | 6.4 | 0.00 | 0.00 | 0.00 | 95 | 1013.3 |
| 20260508050309 | 4 | 0 | 0.0 | 4.8 | 0.00 | 0.00 | 0.00 | 95 | 1013.2 |
| 20260508045309 | 4 | 45 | 3.2 | 4.8 | 0.00 | 0.00 | 0.00 | 95 | 1013.2 |
| 20260508043309 | 3 | 0 | 0.0 | 0.0 | 0.00 | 0.00 | 0.00 | 95 | 1012.9 |
| 20260508042309 | 3 | 0 | 0.0 | 0.0 | 0.00 | 0.00 | 0.00 | 95 | 1012.9 |
| 20260508041314 | 3 | 0 | 0.0 | 0.0 | 0.00 | 0.00 | 0.00 | 95 | 1012.8 |
| 20260508040314 | 3 | 0 | 0.0 | 0.0 | 0.00 | 0.00 | 0.00 | 95 | 1012.5 |
| 20260508035314 | 3 | 0 | 0.0 | 0.0 | 0.00 | 0.00 | 0.00 | 95 | 1012.5 |
| 20260508034314 | 3 | 0 | 0.0 | 0.0 | 0.00 | 0.00 | 0.00 | 94 | 1012.5 |
| 20260508033314 | 3 | 22 | 4.8 | 6.4 | 0.00 | 0.00 | 0.00 | 94 | 1012.4 |
| 20260508032313 | 3 | 22 | 4.8 | 8.0 | 0.00 | 0.00 | 0.00 | 95 | 1012.6 |
| 20260508031314 | 3 | 22 | 6.4 | 9.7 | 0.00 | 0.00 | 0.00 | 95 | 1012.6 |
| 20260508030313 | 3 | 45 | 3.2 | 6.4 | 0.00 | 0.00 | 0.00 | 94 | 1012.6 |
| 20260508025313 | 3 | 45 | 3.2 | 6.4 | 0.00 | 0.00 | 0.00 | 94 | 1012.6 |
| 20260508024313 | 3 | 22 | 4.8 | 8.0 | 0.00 | 0.00 | 0.00 | 95 | 1012.6 |
| 20260508023313 | 3 | 22 | 4.8 | 6.4 | 0.00 | 0.00 | 0.00 | 95 | 1012.9 |
| 20260508022312 | 3 | 22 | 4.8 | 6.4 | 0.00 | 0.00 | 0.00 | 94 | 1012.7 |
| 20260508021312 | 3 | 22 | 4.8 | 8.0 | 0.00 | 0.00 | 0.00 | 95 | 1012.7 |
| 20260508020312 | 3 | 45 | 3.2 | 4.8 | 0.00 | 0.00 | 0.00 | 94 | 1012.7 |
| 20260508014312 | 3 | 45 | 3.2 | 4.8 | 0.00 | 0.00 | 0.00 | 94 | 1013.2 |
| 20260508012312 | 4 | 0 | 0.0 | 0.0 | 0.00 | 0.00 | 0.00 | 94 | 1013.1 |
| 20260508011312 | 4 | 0 | 0.0 | 0.0 | 0.00 | 0.00 | 0.00 | 94 | 1013.1 |
| 20260508005311 | 4 | 0 | 0.0 | 0.0 | 0.00 | 0.00 | 0.00 | 94 | 1013.2 |
| 20260508004311 | 4 | 0 | 0.0 | 0.0 | 0.00 | 0.00 | 0.00 | 93 | 1013.2 |
| 20260508003311 | 5 | 0 | 0.0 | 4.8 | 0.00 | 0.00 | 0.00 | 93 | 1013.7 |
| 20260508002311 | 5 | 45 | 4.8 | 6.4 | 0.00 | 0.00 | 0.00 | 93 | 1013.5 |
| 20260508001311 | 5 | 0 | 0.0 | 4.8 | 0.00 | 0.00 | 0.00 | 93 | 1013.4 |
| 20260508000312 | 5 | 22 | 4.8 | 6.4 | 0.00 | 0.00 | 0.00 | 93 | 1013.5 |